Regional Weather Roundup
Issued by NWS

Home | Current Version | Previous Version | Text Only | Print | Product List | Glossary On
Versions: 1 2 3 4 5 6 7 8 9 10 11 12 13 14 15 16 17 18 19 20 21 22 23 24 25 26 27 28 29 30 31 32 33 34 35 36 37 38 39 40 41 42 43 44 45 46 47 48 49 50
816
ASUS43 KBIS 112331
RWRND
NORTH DAKOTA REGIONAL WEATHER ROUNDUP
NATIONAL WEATHER SERVICE EASTERN NORTH DAKOTA/GRAND FORKS ND
500 PM CST THU FEB 11 2016

  NOTE: "FAIR" INDICATES FEW OR NO CLOUDS BELOW 12,000 FEET WITH NO
  SIGNIFICANT WEATHER AND/OR OBSTRUCTIONS TO VISIBILITY.

NDZ001>003-009>011-017-120000-
...NORTHWEST NORTH DAKOTA...

CITY           SKY/WX    TMP DP  RH WIND       PRES   REMARKS
WILLISTON      PTCLDY    24  16  71 N8        30.23R WCI  15
MINOT          CLOUDY    21  11  65 NW7       30.22R WCI  12
MINOT AFB      CLOUDY    20  14  77 N1        30.21R
$$

NDZ018>021-031>035-040>046-120000-
...SOUTHWEST NORTH DAKOTA...

CITY           SKY/WX    TMP DP  RH WIND       PRES   REMARKS
BISMARCK       CLOUDY    25  16  68 NE8       30.20R WCI  16
DICKINSON      CLOUDY    23  18  81 N5        30.13R WCI  17
GARRISON         N/A     20  14  77 N9        30.18R WCI   9
HETTINGER      CLOUDY    26  21  81 N7        30.14R WCI  18
$$

NDZ004>008-012>016-024-026-027-054-120000-
...NORTHEAST NORTH DAKOTA...

CITY           SKY/WX    TMP DP  RH WIND       PRES   REMARKS
GRAND FORKS    FLURRIES  16   8  71 NW8       30.25R WCI   5
GRAND FORKS AF FLURRIES  14   7  73 N7        30.24R WCI   4
DEVILS LAKE    CLOUDY     9   4  80 N7        30.23R WCI  -2
$$

NDZ022-023-025-028>030-036>039-047>053-120000-
...SOUTHEAST NORTH DAKOTA...

CITY           SKY/WX    TMP DP  RH WIND       PRES   REMARKS
JAMESTOWN      CLOUDY    16  11  80 N10       30.19R WCI   4
FARGO          CLOUDY    14   3  61 N7        30.24R WCI   4
WAHPETON       CLOUDY    14  10  85 NW6       30.24R WCI   5
$$




USA.gov is the U.S. government's official web portal to all federal, state and local government web resources and services.